x

Big Bay, Mi (bigm4) Weather Station

5:40pm - Sun 19th Apr 2015 All times are CDT. -5 hours from GMT.

  • Wind
    15mph, 26mph gusts
  • Air Temp 56°f
  • Sea Pressure 1002.4mb
  • Big Bay, Mi
  • Big Bay, Mi

More Historic Weather Station data

Upgrade to MSW Pro to gain access to the past 30 days of data for over 8000 Wavebouys and Weather Stations around the globe.

Join Pro

Comparision Forecast

View Surf forecast
   
Sun 04/19 5:40pm 15 26 mph 1002.4mb 56f
5:30pm 14 23 mph 1002.4mb 56f
5:20pm 10 24 mph 1002.7mb 56f
5:10pm 14 24 mph 1002.7mb 56f
5:00pm 9 18 mph 1003mb 55f
4:40pm 9 17 mph 1003.7mb 54f
4:30pm 11 20 mph 1003.4mb 54f
4:20pm 10 23 mph 1003.7mb 54f
4:10pm 14 21 mph 1003.7mb 54f
4:00pm 13 16 mph 1004.1mb 54f
3:40pm 10 16 mph 1004.4mb 55f
3:30pm 10 16 mph 1004.4mb 54f
3:20pm 9 22 mph 1004.7mb 54f
3:10pm 9 20 mph 1004.7mb 53f
3:00pm 9 15 mph 1005.1mb 53f
2:40pm 10 17 mph 1005.8mb 53f
2:30pm 8 15 mph 1005.8mb 53f
2:20pm 11 20 mph 1006.1mb 53f
2:10pm 11 22 mph 1006.1mb 53f
2:02pm 15 26 mph 1006.1mb 53f
2:00pm 15 26 mph 1006.1mb 53f
1:40pm 16 26 mph 1006.4mb 54f
1:30pm 10 24 mph 1006.4mb 54f
1:20pm 15 22 mph 1006.4mb 54f
1:10pm 8 22 mph 1006.8mb 55f
1:01pm 11 25 mph 1006.8mb 55f
1:00pm 11 24 mph 1007.1mb 55f
12:40pm 11 25 mph 1007.5mb 55f
12:30pm 11 22 mph 1007.8mb 54f
12:20pm 10 18 mph 1008.1mb 53f
12:10pm 10 21 mph 1008.5mb 52f
12:01pm 10 20 mph 1008.5mb 51f
12:00pm 10 17 mph 1008.5mb 51f
11:40am 8 16 mph 1009.1mb 49f
11:30am 8 15 mph 1009.5mb 51f
11:20am 11 16 mph 1009.5mb 51f
11:10am 13 20 mph 1010.2mb 52f
11:00am 8 22 mph 1010.2mb 52f
10:40am 10 20 mph 1010.5mb 51f
10:30am 14 22 mph 1010.5mb 50f
10:20am 14 22 mph 1010.5mb 50f
10:10am 17 26 mph 1010.5mb 49f
10:00am 13 25 mph 1010.8mb 49f
9:40am 13 22 mph 1011.5mb 48f
9:30am 13 23 mph 1011.5mb 47f
9:20am 10 15 mph 1011.9mb 45f
9:10am 7 13 mph 1012.2mb 45f
9:00am 7 14 mph 1012.5mb 45f
8:40am 8 14 mph 1013.2mb 44f
8:30am 5 11 mph 1013.5mb 43f
8:20am 6 10 mph 1013.9mb 43f
8:10am 5 9 mph 1013.9mb 42f
8:00am 5 10 mph 1014.2mb 42f
7:40am 7 10 mph 1014.6mb 41f
7:30am 6 11 mph 1014.6mb 40f
7:20am 7 16 mph 1014.6mb 40f
7:10am 9 14 mph 1014.6mb 40f
7:00am 7 13 mph 1014.6mb 39f
6:40am 8 14 mph 1014.6mb 39f
6:30am 9 16 mph 1014.6mb 39f
6:20am 7 15 mph 1014.6mb 39f
6:10am 7 11 mph 1014.6mb 38f
6:00am 7 13 mph 1014.9mb 37f
5:40am 6 11 mph 1015.2mb 36f
5:30am 5 13 mph 1015.2mb 37f
5:20am 7 10 mph 1015.2mb 37f
5:10am 5 9 mph 1015.2mb 36f
5:00am 5 10 mph 1015.6mb 36f
4:40am 6 11 mph 1015.6mb 36f
4:30am 7 10 mph 1015.9mb 36f
4:20am 5 9 mph 1015.9mb 36f
4:10am 6 9 mph 1016.3mb 36f
4:00am 6 9 mph 1016.3mb 36f
3:40am 2 5 mph 1016.6mb 35f
3:30am 2 8 mph 1016.9mb 35f
3:20am 5 7 mph 1016.9mb 36f
3:10am 2 6 mph 1017.3mb 36f
3:00am 3 6 mph 1017.3mb 36f
2:40am 2 3 mph 1017.3mb 35f
2:30am 1 6 mph 1017.6mb 35f
2:20am 2 3 mph 1017.6mb 33f
2:10am 2 3 mph 1017.9mb 34f
2:00am 2 3 mph 1018.3mb 34f
1:40am  -  5 mph 1018.6mb 35f
1:30am 2 5 mph 1018.6mb 36f
1:20am 3 7 mph 1018.6mb 36f
1:10am 3 7 mph 1019mb 37f
1:00am 3 8 mph 1019mb 37f
12:40am 5 8 mph 1019mb 37f
12:30am 5 9 mph 1019mb 37f
12:20am 6 9 mph 1019.3mb 37f
12:10am 5 7 mph 1019.3mb 37f
12:00am 5 7 mph 1019.3mb 37f
Sat 04/18 11:40pm 6 9 mph 1019.6mb 37f
11:30pm 6 9 mph 1020mb 37f
11:20pm 6 10 mph 1020mb 37f
11:10pm 5 7 mph 1020mb 36f
11:00pm 5 8 mph 1020mb 36f
10:40pm 2 6 mph 1020.3mb 36f
10:30pm 5 8 mph 1020.7mb 36f
10:20pm 3 7 mph 1020.7mb 36f
10:10pm 3 6 mph 1020.7mb 36f
10:00pm 2 7 mph 1021mb 36f
9:40pm 2 6 mph 1021.3mb 36f
9:30pm 5 7 mph 1021.3mb 36f
9:20pm 3 8 mph 1021.3mb 36f
9:10pm 3 8 mph 1021.3mb 36f
9:00pm 2 7 mph 1021.7mb 36f
8:40pm 3 6 mph 1021.7mb 36f
8:30pm 2 5 mph 1021.7mb 36f
8:20pm 1 3 mph 1022mb 36f
8:10pm  -  3 mph 1022mb 36f
8:00pm 2 5 mph 1022mb 37f
7:40pm  -  3 mph 1022mb 37f
7:30pm 2 3 mph 1022mb 36f
7:20pm 1 5 mph 1022mb 37f
7:10pm  -  5 mph 1022.4mb 38f
7:00pm  -  5 mph 1022.7mb 40f
6:40pm  -  2 mph 1022.7mb 40f
6:30pm  -  3 mph 1022.7mb 42f
6:20pm  -  3 mph 1022.7mb 44f
6:10pm 2 3 mph 1022.7mb 45f
6:00pm  -  2 mph 1022.4mb 43f
5:50pm  -  2 mph 1022.7mb 43f
5:40pm  -  2 mph 1022.7mb 42f
5:30pm  -  2 mph 1023mb 42f
5:20pm  -  3 mph 1023mb 45f
5:10pm  -  3 mph 1023.4mb 45f
5:00pm 1 5 mph 1023mb 46f
4:50pm 2 8 mph 1023mb 44f
4:40pm 6 8 mph 1023mb 41f
4:30pm 6 9 mph 1023.4mb 40f
4:20pm 8 9 mph 1023mb 39f
4:10pm 8 9 mph 1023.4mb 40f
4:00pm 7 9 mph 1023.4mb 40f
3:50pm 7 9 mph 1023.4mb 41f
3:40pm 6 8 mph 1023.4mb 42f
3:30pm 6 7 mph 1023.7mb 42f
3:20pm 5 7 mph 1023.7mb 42f
3:10pm 5 6 mph 1024mb 42f
3:00pm 5 7 mph 1023.7mb 42f
2:50pm 5 7 mph 1024mb 41f
2:40pm 3 6 mph 1024mb 41f
2:30pm 5 7 mph 1024.4mb 41f
2:20pm 5 7 mph 1024.4mb 41f
2:10pm 6 7 mph 1024.4mb 40f
2:00pm 6 7 mph 1024.4mb 41f
1:50pm 6 7 mph 1024.4mb 41f
1:40pm 6 7 mph 1024.4mb 41f
1:30pm 6 7 mph 1024.4mb 41f
1:20pm 5 6 mph 1024.4mb 42f
1:10pm 5 6 mph 1024.7mb 43f
1:00pm 5 6 mph 1024.7mb 44f
12:50pm 5 6 mph 1024.7mb 43f
12:40pm 5 6 mph 1024.7mb 44f
12:30pm 3 6 mph 1025.1mb 44f
12:20pm 5 6 mph 1024.7mb 44f
12:10pm 5 7 mph 1024.7mb 44f
12:00pm 5 6 mph 1024.7mb 45f
11:50am 2 6 mph 1024.7mb 45f
11:40am 3 6 mph 1024.7mb 45f
11:30am 3 6 mph 1024.4mb 43f
11:20am 6 8 mph 1024.4mb 42f
11:10am 7 8 mph 1024.4mb 41f
11:00am 8 11 mph 1024.4mb 41f
10:50am 8 10 mph 1024.4mb 43f
10:40am 3 5 mph 1024.4mb 45f
10:30am 2 3 mph 1024.4mb 45f
10:20am 1 5 mph 1024.4mb 45f
10:10am 2 3 mph 1024mb 44f
10:00am 1 3 mph 1024mb 43f
9:50am 1 5 mph 1024mb 44f
9:40am 3 7 mph 1024mb 45f
9:30am  -  3 mph 1024mb 45f
9:20am  -  2 mph 1024.4mb 43f
9:10am  -  5 mph 1024.4mb 42f
9:00am 2 6 mph 1024mb 42f
8:50am 3 5 mph 1024mb 40f
8:40am 3 5 mph 1024mb 40f
8:30am 5
mph
1024mb 40f
8:20am 3 6 mph 1023.7mb 39f
8:10am 6 7 mph 1023.4mb 40f
8:00am 6 9 mph 1023.4mb 40f
7:50am 8 11 mph 1023.4mb 39f
7:40am 9 16 mph 1023.4mb 40f
7:30am 11 14 mph 1023.4mb 40f
7:20am 6 9 mph 1023.7mb 40f
7:10am 3 8 mph 1023.7mb 40f
7:00am 2 9 mph 1023.7mb 39f
6:50am 6 8 mph 1023.4mb 38f
6:40am 7 8 mph 1023mb 39f
6:30am 6 8 mph 1023mb 39f
6:20am 7 10 mph 1022.7mb 39f
6:10am 8 9 mph 1022.4mb 39f
6:00am 6 9 mph 1022.4mb 38f
5:50am 8 10 mph 1022.4mb 39f
5:40am 6 11 mph 1022.4mb 39f
5:30am 9 11 mph 1022.4mb 38f
5:20am 5 8 mph 1022mb 38f
5:10am 3 10 mph 1022mb 37f
5:00am 3 10 mph 1021.7mb 38f
4:50am 6 8 mph 1021.3mb 38f
4:40am 3 13 mph 1021mb 38f
4:30am 7 15 mph 1020.7mb 39f
4:20am 10 14 mph 1020.7mb 39f
4:10am 10 15 mph 1020.7mb 38f
4:00am 10 16 mph 1020.3mb 39f
3:50am 9 13 mph 1020.3mb 40f
3:40am 9 15 mph 1020.3mb 40f
3:30am 9 16 mph 1020.3mb 40f
3:20am 11 17 mph 1020.3mb 40f
3:10am 13 17 mph 1020mb 40f
3:00am 13 17 mph 1020mb 41f
2:50am 11 21 mph 1020mb 42f
2:40am 10 14 mph 1019.6mb 42f
2:30am 6 13 mph 1019.6mb 42f
2:20am 7 17 mph 1019.6mb 42f
2:10am 9 17 mph 1019.3mb 42f
2:00am 11 16 mph 1019mb 42f
1:50am 10 22 mph 1019mb 43f
1:40am 14 18 mph 1018.6mb 43f
1:30am 10 20 mph 1018.3mb 44f
1:20am 13 22 mph 1018.3mb 44f
1:10am 9 22 mph 1017.6mb 45f
1:00am 11 21 mph 1017.6mb 46f
12:50am 15 25 mph 1017.3mb 46f
12:40am 8 22 mph 1017.3mb 47f
12:30am 11 22 mph 1016.6mb 48f
12:20am 15 24 mph 1015.9mb 49f
12:10am 17 28 mph 1015.6mb 50f
12:00am 16 31 mph 1014.9mb 53f
Fri 04/17 11:50pm 13 22 mph 1014.2mb 55f
11:40pm 13 22 mph 1013.9mb 56f
11:30pm 10 29 mph 1013.5mb 59f
11:20pm 7 13 mph 1012.9mb 63f
11:10pm 2 9 mph 1012.2mb 62f
11:00pm 5 10 mph 1012.2mb 62f
10:50pm 3 9 mph 1012.2mb 61f
10:40pm 2 10 mph 1012.2mb 59f
10:30pm 1 7 mph 1012.2mb 55f
10:20pm 2 5 mph 1012.2mb 49f
10:10pm 2 6 mph 1012.5mb 44f
10:00pm 2 3 mph 1012.5mb 42f
9:50pm 2 3 mph 1012.5mb 42f
9:40pm 1 3 mph 1012.5mb 43f
9:30pm 3 5 mph 1012.9mb 43f
9:20pm 2 6 mph 1012.9mb 44f
9:10pm 3 6 mph 1013.2mb 46f
9:00pm 2 5 mph 1013.2mb 45f
8:50pm 2 3 mph 1013.2mb 43f
8:40pm 2 3 mph 1013.2mb 44f
8:30pm 2 3 mph 1013.2mb 45f
8:20pm 3 5 mph 1013.2mb 46f
8:10pm 2 3 mph 1013.5mb 47f
8:00pm 3 5 mph 1013.5mb 49f
7:50pm 3 6 mph 1013.5mb 49f
7:40pm 2 6 mph 1013.5mb 50f
7:30pm 3 6 mph 1013.5mb 50f
7:20pm 1 3 mph 1013.5mb 48f
7:10pm  -  1 mph 1013.9mb 49f
7:00pm  -  3 mph 1013.9mb 50f
6:50pm 3 6 mph 1013.9mb 48f
6:40pm 6 7 mph 1013.9mb 51f
6:30pm 3 11 mph 1013.5mb 51f
6:20pm 3 7 mph 1013.5mb -
6:10pm 5 7 mph 1013.9mb -
6:00pm  -  7 mph 1013.5mb 59f
5:50pm 5 8 mph 1013.5mb 59f
5:40pm 3 9 mph 1013.5mb 58f
5:30pm 2 8 mph 1013.9mb 58f
5:20pm 5 10 mph 1013.9mb 57f
5:10pm 7 9 mph 1013.9mb 57f
5:00pm 7 11 mph 1013.9mb 57f
4:50pm 7 10 mph 1014.2mb 56f
4:40pm 6 11 mph 1014.2mb 56f
4:30pm 7 13 mph 1014.2mb 56f
4:20pm 7 10 mph 1014.6mb 56f
4:10pm 1 5 mph 1014.6mb 48f
4:00pm 3 7 mph 1014.6mb 46f
3:50pm 6 8 mph 1014.6mb 45f
3:40pm 3 6 mph 1014.9mb 47f
3:30pm 5 10 mph 1015.2mb 47f
3:20pm 9 11 mph 1015.2mb 43f
3:10pm  -  6 mph 1015.2mb 49f
3:00pm  -  3 mph 1015.6mb 49f
2:50pm  -  3 mph 1015.6mb 49f
2:40pm  -  8 mph 1015.9mb 53f
2:30pm 2 3 mph 1015.6mb 50f
2:20pm 1 6 mph 1015.9mb 52f
2:10pm 3 6 mph 1015.9mb 57f
2:00pm 2 7 mph 1015.9mb 55f
1:50pm  -  5 mph 1016.3mb 52f
1:40pm  -  2 mph 1016.3mb 52f
1:30pm 1 7 mph 1016.3mb 48f
1:20pm 2 7 mph 1016.6mb 48f
1:10pm 7 8 mph 1016.6mb 46f
1:00pm 6 7 mph 1016.9mb 44f
12:50pm 6 9 mph 1016.9mb 43f
12:40pm 8 9 mph 1017.3mb 42f
12:30pm 7 8 mph 1017.3mb 44f
12:20pm 6 7 mph 1017.3mb 44f
12:10pm 7 8 mph 1017.3mb 43f
12:00pm 7 8 mph 1017.6mb 44f
11:50am 6 8 mph 1017.9mb 43f
11:40am 7 8 mph 1017.9mb 44f
11:30am 6 7 mph 1018.3mb 48f
11:20am 5
mph
1018.3mb 50f
11:10am 3 5 mph 1018.3mb 48f
11:00am 3 5 mph 1018.6mb 47f
10:50am 3 5 mph 1018.6mb 47f
10:40am 5
mph
1019mb 51f
10:30am 1 3 mph 1019mb 49f
10:20am 3 5 mph 1019mb 50f
10:10am 3
mph
1019mb 52f
10:00am 2
mph
1019mb 51f
9:50am 1 2 mph 1019mb 52f
9:40am 1 3 mph 1019mb 49f
9:30am 3 7 mph 1019mb 46f
9:20am 5 7 mph 1019mb 45f
9:10am 6 9 mph 1019mb 44f
9:00am 3 5 mph 1019mb 46f
8:50am 3 7 mph 1018.6mb 46f
8:40am 3 7 mph 1018.6mb 44f
8:30am 6 8 mph 1018.6mb 46f
8:20am 3 5 mph 1018.6mb 46f
8:10am 3 5 mph 1018.6mb 47f
8:00am  -  1 mph 1018.3mb 46f
7:50am  -  2 mph 1018.3mb 43f
7:40am  -  3 mph 1018.3mb 44f
7:30am 1 2 mph 1017.9mb 45f
7:20am  -  1 mph 1017.9mb 44f
7:10am  -  mph 1017.9mb 43f
7:00am  -  1 mph 1017.9mb 42f
6:50am  -  1 mph 1017.6mb 41f
6:40am  -  2 mph 1017.6mb 41f
6:30am  -  2 mph 1017.3mb 41f
6:20am  -  5 mph 1017.6mb 42f
6:10am 1 6 mph 1017.3mb 43f
6:00am 2 5 mph 1017.3mb 46f
5:50am 3 6 mph 1017.3mb 47f
5:40am 3 7 mph 1017.3mb 48f
5:30am 3 7 mph 1017.3mb 47f
5:20am 3 8 mph 1016.9mb 49f
5:10am 3 11 mph 1016.9mb 50f
5:00am 3 10 mph 1016.9mb 51f
4:50am 6 10 mph 1016.9mb 51f
4:40am 6 13 mph 1016.9mb 51f
4:30am 6 13 mph 1016.6mb 51f
4:20am 7 13 mph 1016.6mb 51f
4:10am 6 13 mph 1016.3mb -
4:00am 7 11 mph 1016.3mb -
3:50am 6 14 mph 1016.3mb -
3:40am 5 10 mph 1015.9mb 43f
3:30am 3 10 mph 1015.9mb 41f
3:20am 2 7 mph 1015.6mb 40f
3:10am  -  2 mph 1015.6mb 41f
3:00am  -  5 mph 1015.2mb 42f
2:50am 2 5 mph 1015.2mb 42f
2:40am 2 6 mph 1014.9mb 42f
2:30am 2 3 mph 1014.9mb 42f
2:20am  -  3 mph 1014.9mb 43f
2:10am 2 5 mph 1014.9mb 44f
2:00am 3 6 mph 1014.9mb 42f
1:50am  -  6 mph 1014.9mb 43f
1:40am 3 6 mph 1014.9mb 41f
1:30am  -  2 mph 1014.9mb 42f
1:20am  -  2 mph 1014.9mb 42f
1:10am  -  3 mph 1014.9mb 42f
1:00am  -  5 mph 1014.9mb 42f
12:50am 2 3 mph 1014.9mb 40f
12:40am 2 3 mph 1014.9mb 40f
12:30am 2 3 mph 1014.9mb 40f
12:20am 1 2 mph 1014.9mb 40f
12:10am  -  1 mph 1014.9mb 41f
12:00am  -  1 mph 1015.2mb 41f
Thu 04/16 11:50pm  -  2 mph 1015.2mb 40f
11:40pm 2 3 mph 1015.2mb 40f
11:30pm 1 3 mph 1015.2mb 41f
11:20pm  -  1 mph 1015.2mb 42f
11:10pm  -  2 mph 1015.2mb 42f
11:00pm 2
mph
1014.9mb 43f
10:50pm 2 3 mph 1014.9mb 42f
10:40pm  -  2 mph 1014.9mb 42f
10:30pm  -  3 mph 1015.2mb 42f
10:20pm 3 5 mph 1014.9mb 42f
10:10pm 5
mph
1015.2mb 42f
10:00pm 5 9 mph 1015.2mb 41f
9:50pm 6 9 mph 1015.2mb 41f
9:40pm 8 10 mph 1015.2mb 44f
9:30pm 7 13 mph 1015.2mb 48f
9:20pm  -  1 mph 1014.9mb 50f
9:10pm  -  1 mph 1014.9mb 51f
9:00pm  -  2 mph 1014.9mb 51f
8:50pm 2
mph
1014.6mb 52f
8:40pm  -  2 mph 1014.9mb 51f
8:30pm  -  2 mph 1014.6mb 51f
8:20pm  -  1 mph 1014.6mb 52f
8:10pm 1 2 mph 1014.6mb 52f
8:00pm  -  2 mph 1014.6mb 53f
7:50pm 1 3 mph 1014.6mb 53f
7:40pm 2 3 mph 1014.2mb 52f
7:30pm 1 2 mph 1014.6mb 53f
7:20pm  -  2 mph 1014.2mb 55f
7:10pm 2
mph
1014.6mb 54f
7:00pm  -  2 mph 1014.6mb 54f
6:50pm 1 2 mph 1014.6mb 55f
6:40pm 1 2 mph 1014.6mb 55f
6:30pm 2
mph
1014.6mb 56f
6:20pm 1 2 mph 1014.6mb 55f
6:10pm 2 3 mph 1014.9mb 55f
6:00pm 1 3 mph 1014.6mb 60f
5:50pm  -  3 mph 1014.6mb 57f
5:40pm 2 3 mph 1014.6mb 57f
5:30pm 3
mph
1014.6mb 58f
5:20pm 3 5 mph 1014.9mb 56f
5:10pm 5
mph
1014.6mb 58f
5:00pm 2 3 mph 1014.9mb 58f
4:50pm 2 5 mph 1014.9mb 56f
4:40pm 2 3 mph 1014.9mb 58f
4:30pm 2 5 mph 1014.9mb 55f
4:20pm 5
mph
1014.9mb 55f
4:10pm 3 5 mph 1015.2mb 50f
4:00pm 2
mph
1015.2mb 54f
3:50pm  -  2 mph 1015.2mb 55f
3:40pm 2 3 mph 1015.2mb 51f
3:30pm 3
mph
1015.2mb 49f
3:20pm 3 5 mph 1015.2mb 50f
3:10pm 3 5 mph 1015.2mb 51f
3:00pm 2 5 mph 1015.2mb 49f
2:50pm 3 5 mph 1015.2mb 50f
2:40pm 2 5 mph 1015.2mb 50f
2:30pm 3 5 mph 1015.6mb 49f
2:20pm 3 5 mph 1015.6mb 48f
2:10pm 5
mph
1015.6mb 48f
2:00pm 2 5 mph 1015.9mb 47f
1:50pm 3 5 mph 1015.9mb 49f
1:40pm  -  3 mph 1015.9mb 45f
1:30pm 3 5 mph 1016.3mb 44f
1:20pm 3 5 mph 1016.3mb 43f
1:10pm 3 5 mph 1016.3mb 43f
1:00pm 5 6 mph 1016.3mb 43f
12:50pm 3 5 mph 1016.6mb 44f
12:40pm 3 6 mph 1016.6mb 44f
12:30pm 3 5 mph 1016.9mb 44f
12:20pm 3 5 mph 1016.9mb 47f
12:10pm 3 5 mph 1017.3mb 47f
12:00pm 3 5 mph 1017.3mb 47f
11:50am 3 7 mph 1017.3mb 45f
11:40am 6 8 mph 1017.6mb 43f
11:30am 8
mph
1017.6mb 43f
11:20am 8 9 mph 1017.6mb 42f
11:10am 8 9 mph 1017.6mb 43f
11:00am 7 8 mph 1017.6mb 42f
10:50am 7 8 mph 1017.6mb 40f
10:40am 6 8 mph 1017.6mb 41f
10:30am 6 8 mph 1017.6mb 44f
10:20am 7 11 mph 1017.9mb 42f
10:10am 9 10 mph 1017.9mb 40f
10:00am 6 7 mph 1018.3mb 44f
9:50am 3 5 mph 1018.3mb 49f
9:40am 2 5 mph 1018.6mb 47f
9:30am 3 7 mph 1018.6mb 45f
9:20am 2 3 mph 1018.6mb 49f
9:10am 2 6 mph 1019mb 46f
9:00am 3 8 mph 1019mb 45f
8:50am 2 5 mph 1019mb 44f
8:40am 3 8 mph 1019mb 41f
8:30am 7
mph
1019mb 42f
8:20am 3 6 mph 1019.3mb 43f
8:10am 3 6 mph 1019.6mb 41f
8:00am 5 7 mph 1019.6mb 40f
7:50am 6 7 mph 1019.6mb 41f
7:40am 3 5 mph 1020mb 40f
7:30am 3 5 mph 1020mb 37f
7:20am 2 3 mph 1020mb 37f
7:10am 3
mph
1020mb 36f
7:00am  -  2 mph 1020.3mb 35f
6:50am 1 2 mph 1020.3mb 35f
6:40am 1 2 mph 1020.3mb 34f
6:30am  -  1 mph 1020.3mb 34f
6:20am  -  3 mph 1020.3mb 34f
6:10am  -  2 mph 1020.7mb 33f
6:00am  -  1 mph 1020.7mb 33f
5:50am  -  mph 1021mb 34f
5:40am  -  mph 1021mb 34f
5:30am  -  mph 1021mb 35f
5:20am  -  1 mph 1021mb 36f
5:10am  -  5 mph 1021mb 37f
5:00am 3 7 mph 1021mb 37f
4:50am 6 8 mph 1021mb 37f
4:40am  -  6 mph 1021mb 37f
4:30am  -  3 mph 1021.3mb 38f
4:20am 2 8 mph 1021.3mb 39f
4:10am 5 8 mph 1021.3mb 37f
4:00am 6 8 mph 1021.3mb 38f
3:50am 8 9 mph 1021mb 39f
3:40am 3 6 mph 1021mb 39f
3:30am  -  3 mph 1021mb 38f
3:20am  -  2 mph 1021mb 38f
3:10am  -  1 mph 1021mb 38f
3:00am  -  2 mph 1021.3mb 39f
2:50am  -  2 mph 1021.3mb 38f
2:40am 1 2 mph 1021.3mb 40f
2:30am  -  5 mph 1021.3mb 41f
2:20am 1 3 mph 1021.3mb 42f
2:10am  -  5 mph 1021.3mb 44f
2:00am 2 3 mph 1021.7mb 45f
1:50am  -  6 mph 1021.7mb 46f
1:40am 5 8 mph 1021.7mb 47f
1:30am 6 13 mph 1021.3mb 47f
1:20am 9 15 mph 1021.3mb 47f
1:10am 8 13 mph 1021.7mb 44f
1:00am 6 8 mph 1021.7mb 42f
12:50am 5 8 mph 1022mb 37f
12:40am 5 7 mph 1022.4mb 36f
12:30am 3 6 mph 1022.4mb 37f
12:20am 2 5 mph 1022.4mb 39f
12:10am 2 5 mph 1022.7mb 40f
12:00am 3 6 mph 1022.7mb 38f
Wed 04/15 11:50pm 2 5 mph 1022.7mb 37f